Back to catalog

EUTE 7B

EUTE 3D

AliveCommunicationsGEO
NORAD 39163·PAYLOAD·🇪🇺 EU

Launched May 14, 2013 from Baikonur Cosmodrome

Loading…

TLE

FreshSource: Space-Track

Epoch: Sep 14, 2026, 13:52 UTC

1 39163U 13022A   26257.57830770  .00000096  00000-0  00000-0 0  9994
2 39163   0.0674 344.4985 0004932 119.1991 114.0513  1.00271678 48848

Track EUTE 7B in real time with AllMySat

Download on the App Store